MIDAS 3 DEB, 196

Orbit data source: Space-Track

MIDAS 3 DEB, 196 is space debris in LEO originally from a launch on Wed, 12 Jul 1961 UTC launched from the Air Force Western Test Range (AFWTR). Debris objects in space refer to the collection of defunct objects orbiting the Earth. Examples of debris include non-operational satellites, rocket bodies, and fragments generated from explosions, collisions, or faulty payload assembly.

Loading next visibility...
Identifier
196, 1961-018D
Orbit
LEO
Country
Flag of USUS
Related business
Manufacturer
Unknown
Mission
Spacecraft
Bus & Motor
Unknown
Mass
~10 kg wet, ~10 kg dry
Launch date (UTC)
1961-07-12 (65 years ago)
Launch vehicle
Unknown
Launch site
Air Force Western Test Range (AFWTR)
Object type
Payload
Rocket body
Debris
Shape & HBR
PAN, 1.1 m
Radar Cross Section
Medium (>0.1 m² and <1 m²)

Expand to show TLE details & history
Last TLE update: 16 hours ago

TLE from 16 hours ago
0 MIDAS 3 DEB
1 00196U 61018D   26256.80879347 -.00000012  00000-0 -48313-2 0  9995
2 00196  91.1307 207.2255 0087435 218.2602 141.2042  8.89679671116531
Epoch: 2026-09-13T19:24Z
TLE epoch observation values (Epoch: 2026-09-13T19:24:39.755Z)
Latitude
-0°
Longitude
-76.73827°
Altitude
3,529.574 km
Speed
6.322 km/s
True Right ascension
13h 48m 54s
True Declination
0° 00' 00"
Sunlit
Object was in daylight at epoch
Visualization orbit readout
Latitude
Unknown
Longitude
Unknown
Altitude
Unknown
Speed
Unknown
Apparent Right ascension
Unknown
Apparent Declination
Unknown
Sunlit
N/A
Visualization observer readout
Local Sidereal Time
03:42:05
Azimuth
Unknown
Elevation
Unknown
Doppler factor
Unknown
Orbital elements
Apogee altitude
3,543.768 km
Perigee altitude
3,371.767 km
Semi-major axis
9,835.904 km
Eccentricity
0.00874
Inclination
91.1307°
RAAN
207.2255°
Arg. of periapsis
218.2602°
True anomaly
141.82664°
Mean anomaly
141.2042°
Eccentric anomaly
141.51595°
Mean motion
2.22496 °/min
Orbital period
161.8 mins
BSTAR
-0.0048313
Loading maneuver chart data...
Computing Atmospheric mass density...
Loading historical data...
Loading historical data...
Loading historical data...
Loading historical data...
Loading historical data...
Loading historical data...
Loading historical data...
Other satellites on launch #18 in the year 1961 (1961-07-12 UTC)

Documentation

Showing up to 5 results
|